Location: Tel Aviv
(32.0670°N, 34.7670°E)
Time: 02:16:54
(UTC+03:00)

Vanguard 2 - Pass Details

Date: 28 January 2022
Orbit: 552 x 2935 km, 32.9° (Epoch: 26 May)

Event Time Altitude Azimuth Distance (km) Brightness Sun altitude
Rises 22:02:32 0° 278° (W) 4,495 11.9 -61.3°
Reaches altitude 10° 22:05:04 10° 278° (W) 3,777 11.3 -61.8°
Enters shadow 22:06:00 14° 278° (W) 3,526 11.1 -61.9°
Maximum altitude 22:15:42 88° 192° (SSW) 2,212 - -63.8°
Drops below altitude 10° 22:32:29 10° 103° (ESE) 5,648 - -66.9°
Sets 22:37:11 0° 104° (ESE) 6,763 - -67.7°
